Regional Weather Roundup
Issued by NWS

Home | Current Version | Previous Version | Graphics & Text | Print | Product List | Glossary On
Versions: 1 2 3 4 5 6 7 8 9 10 11 12 13 14 15 16 17 18 19 20 21 22 23 24 25 26 27 28 29 30 31 32 33 34 35 36 37 38 39 40 41 42 43 44 45 46 47 48 49 50
000
ASUS43 KBIS 290010
RWRND

NORTH DAKOTA REGIONAL WEATHER ROUNDUP
NATIONAL WEATHER SERVICE BISMARCK ND
700 PM CDT THU MAY 28 2015

NOTE: "FAIR" INDICATES FEW OR NO CLOUDS BELOW 12,000 FEET WITH NO
SIGNIFICANT WEATHER AND/OR OBSTRUCTIONS TO VISIBILITY.


NDZ001>003-009>011-017-290100-
NORTHWEST NORTH DAKOTA

CITY           SKY/WX    TMP DP  RH WIND       PRES   REMARKS
WILLISTON      LGT RAIN  62  54  74 N21G36    29.95R
6HR MIN TEMP:  62; 6HR MAX TEMP:  75; 6HR PCP: TRACE;

MINOT          PTSUNNY   69  55  60 NW13      29.86S
MINOT AFB      PTSUNNY   73  62  68 N10       29.86S
$$

NDZ018>021-031>035-040>046-290100-
SOUTHWEST NORTH DAKOTA

CITY           SKY/WX    TMP DP  RH WIND       PRES   REMARKS
BISMARCK       CLOUDY    74  54  49 N14       29.82S
6HR MIN TEMP:  74; 6HR MAX TEMP:  80;

DICKINSON      MOSUNNY   70  53  54 NE9       29.87S
GARRISON         N/A     73  56  54 N8        29.86R
6HR MIN TEMP:  70; 6HR MAX TEMP:  76;

HETTINGER ARPT CLOUDY    65  54  67 S5        29.89S
$$

NDZ004>008-012>016-024-026-027-054-290100-
NORTHEAST NORTH DAKOTA

CITY           SKY/WX    TMP DP  RH WIND       PRES   REMARKS
GRAND FORKS    LGT RAIN  65  62  90 W3        29.74F
GRND FRKS AFB  CLOUDY    69  62  77 W9        29.75F
DEVILS LAKE    MOSUNNY   73  57  56 NW16      29.80S
$$

NDZ022-023-025-028>030-036>039-047>053-290100-
SOUTHEAST NORTH DAKOTA

CITY           SKY/WX    TMP DP  RH WIND       PRES   REMARKS
FARGO          LGT RAIN  65  61  87 S12       29.78F
6HR MIN TEMP:  64; 6HR MAX TEMP:  86; 6HR PCP:  0.51;

JAMESTOWN      PTSUNNY   75  58  55 NW6       29.78R
$$




USA.gov is the U.S. government's official web portal to all federal, state and local government web resources and services.